Location: Bonningues
(50.7927°N, 2.0150°E)
Time: 06:53:20
(UTC+00:00)

Cosmos 1934 Rocket - Pass Details

Date: 08 August 2020
Orbit: 937 x 1000 km, 83.0° (Epoch: 26 September)

Event Time Altitude Azimuth Distance (km) Brightness Sun altitude
Exits shadow 21:16:19 - 193° (SSW) 3,578 6.6 -14.6°
Reaches altitude 10° 21:18:30 10° 195° (SSW) 2,761 6.0 -14.9°
Maximum altitude 21:24:51 75° 281° (W) 1,039 4.2 -15.5°
Drops below altitude 10° 21:31:16 10° 7° (N) 2,780 7.0 -16.1°
Sets 21:33:49 0° 10° (N) 3,730 7.7 -16.4°
